• Processing (Info)

  • MPEC 2023-K27 : 2023 JD4

    The following Minor Planet Electronic Circular may be linked-to from your own Web pages, but must not otherwise be redistributed electronically.

    A form allowing access to any MPEC is at the bottom of this page.


    Read MPEC 2023-K26 Read MPEC 2023-K28


    M.P.E.C. 2023-K27                                  Issued 2023 May 17, 05:02 UT
    
         The Minor Planet Electronic Circulars contain information on unusual
             minor planets, routine data on comets and natural satellites,
             and occasional editorial announcements.  They are published
        on behalf of Division F of the International Astronomical Union by the
              Minor Planet Center, Smithsonian Astrophysical Observatory,
                              Cambridge, MA 02138, U.S.A.
    			  
                 Prepared using the Tamkin Foundation Computer Network
    
                                  MPC@CFA.HARVARD.EDU
                URL https://www.minorplanetcenter.net/    ISSN 1523-6714
    
                                    2023 JD4                                 
    
    
    Observations:
         K23J04D  C2023 04 24.29623513 05 28.567+15 40 03.00         22.38GVEK027F52
         K23J04D  C2023 04 24.30830113 05 27.390+15 40 16.58         22.33GVEK027F52
         K23J04D  C2023 04 24.32037213 05 26.197+15 40 29.71         22.91GVEK027F52
         K23J04D  C2023 04 24.33255313 05 24.931+15 40 43.02         22.86GVEK027F52
         K23J04D  C2023 04 24.53061513 05 04.726+15 44 08.84         22.06GVEK027F52
         K23J04D  C2023 04 24.53124613 05 04.662+15 44 09.27         22.31GVEK027F52
         K23J04D*1C2023 05 13.22553112 00 46.123+25 31 44.22         20.32GVEK027G96
         K23J04D 1C2023 05 13.23681012 00 38.542+25 32 32.21         20.40GVEK027G96
         K23J04D 1C2023 05 13.24245012 00 34.816+25 32 55.79         20.37GVEK027G96
         K23J04D mC2023 05 13.32606011 59 39.613+25 38 45.13               VEK027I52
         K23J04D mC2023 05 13.32672911 59 39.167+25 38 48.12         20.41GVEK027I52
         K23J04D mC2023 05 13.32739611 59 38.742+25 38 50.50         20.28GVEK027I52
         K23J04D mC2023 05 13.32806411 59 38.296+25 38 53.70         20.46GVEK027I52
         K23J04D mC2023 05 14.15467011 50 26.156+26 45 19.12         20.07GVEK027I52
         K23J04D mC2023 05 14.15579911 50 25.235+26 45 25.49         20.49GVEK027I52
         K23J04D mC2023 05 14.15656111 50 24.601+26 45 29.09         20.42GVEK027I52
         K23J04D mC2023 05 14.15733011 50 23.953+26 45 33.84               VEK027I52
         K23J04D KC2023 05 15.90272311 22 47.654+29 37 25.90         19.9 GVEK027J95
         K23J04D KC2023 05 15.90603811 22 43.423+29 37 48.00         19.9 GVEK027J95
         K23J04D KC2023 05 15.91077411 22 37.464+29 38 18.74         20.6 GVEK027J95
         K23J04D KC2023 05 16.85310511 00 54.99 +31 34 11.1          20.1 GXEK027I93
         K23J04D KC2023 05 16.85627011 00 49.64 +31 34 36.1          19.5 GXEK027I93
         K23J04D KC2023 05 16.85943411 00 44.32 +31 35 00.4          19.5 GXEK027I93
         K23J04D  C2023 05 16.87035 11 00 24.37 +31 36 21.6          20.1 RXEK027511
         K23J04D  C2023 05 16.87270 11 00 20.44 +31 36 38.9          20.1 RXEK027511
         K23J04D  C2023 05 16.87504 11 00 16.56 +31 36 56.5          20.3 RXEK027511
         K23J04D  C2023 05 16.87739 11 00 12.43 +31 37 14.4          20.5 RXEK027511
         K23J04D  C2023 05 16.87973 11 00 08.57 +31 37 31.7          20.6 RXEK027511
         K23J04D  C2023 05 16.88208 11 00 04.50 +31 37 50.2          20.6 RXEK027511
         K23J04D KC2023 05 16.89803510 59 40.087+31 39 24.66         19.8 GVEK027J95
         K23J04D KC2023 05 16.90427110 59 29.561+31 40 12.40         20.3 GVEK027J95
         K23J04D KC2023 05 17.09251010 54 16.92 +32 06 08.7          19.9 VuEK027H21
         K23J04D KC2023 05 17.09444910 54 13.36 +32 06 24.0          20.3 VuEK027H21
         K23J04D KC2023 05 17.09639010 54 09.82 +32 06 39.0          20.4 VuEK027H21
         K23J04D KC2023 05 17.09852410 54 05.92 +32 06 55.6          20.6 VuEK027H21
    
    Observer details:
    511 Haute Provence.  Observers W. Thuillot, M. Saillenfest.  Measurers M.
        Saillenfest, S. Bouquillon, F. Taris, T. Carlucci, C. Barache.  1.20-m f/6
        reflector + CCD.
    F52 Pan-STARRS 2, Haleakala.  Observers J. Bulger, K. Chambers, T. Dukes, T.
        Lowe, A. Schultz, I. Smith.  Measurers S. Chastel, J. Fairlamb, M. Huber,
        Y. Ramanjooloo, R. Wainscoat, R. Weryk.  1.8-m Ritchey-Chretien + CCD.
    G96 Mt. Lemmon Survey.  Observer D. Rankin.  Measurers E. J. Christensen, D.
        Fay, J. B. Fazekas, D. C. Fuls, A. R. Gibbs, A. D. Grauer, H. Groeller, J.
        K. Hogan, R. A. Kowalski, S. M. Larson, G. J. Leonard, D. Rankin, R. L.
        Seaman, A. Serrano, F. C. Shelly, K. W. Wierzchos.  1.5-m reflector + 10K
        CCD.
    H21 Astronomical Research Observatory, Westfield.  Observer R. Holmes.
        Measurers T. Linder, R. Holmes, L. Horn.  0.81-m f/4.0 astrograph + CCD.
    I52 Steward Observatory, Mt. Lemmon Station.  Observer K. W. Wierzchos.
        Measurers E. J. Christensen, D. Fay, J. B. Fazekas, D. C. Fuls, A. R.
        Gibbs, A. D. Grauer, H. Groeller, J. K. Hogan, R. A. Kowalski, S. M.
        Larson, G. J. Leonard, D. Rankin, R. L. Seaman, A. Serrano, F. C. Shelly,
        K. W. Wierzchos.  1.0-m prime focus + CCD.
    I93 St Pardon de Conques.  Observer F. Losse.  0.40-m f/3.7 reflector + CCD.
    J95 Great Shefford.  Observer P. Birtwhistle.  0.41-m f/6.3 Schmidt-Cassegrain
        + CCD.
    
    Orbital elements:
    2023 JD4                                                 Earth MOID = 0.0102 AU
    Epoch 2023 Feb. 25.0 TT = JDT 2460000.5                 Bell                    
    M 326.93168              (2000.0)            P               Q                  
    n   0.30471795     Peri.  207.46850     -0.02189312     +0.99603788             
    a   2.1871103      Node    61.38914     -0.89830630     +0.01824350             
    e   0.5661658      Incl.    5.63448     -0.43882399     -0.08703860             
    P   3.23           H   24.92          G   0.15           U   7                  
    Residuals in seconds of arc
    230424 F52  0.5-  0.3-    230513 I52  0.0   0.1+    230516 511  0.0   0.1-
    230424 F52  0.1-  0.0     230514 I52  0.1+  0.5-    230516 511  1.0+  0.1-
    230424 F52  0.3+  0.1-    230514 I52  0.2+  0.1+    230516 511  1.0-  0.1+
    230424 F52  0.1-  0.0     230514 I52  0.1+  0.2-    230516 511  0.3+  0.2-
    230424 F52  0.2+  0.2+    230514 I52  0.1-  0.6+    230516 511  0.9-  0.7+
    230424 F52  0.2+  0.0     230515 J95  0.6+  0.0     230516 J95  0.2+  0.2-
    230513 G96  0.5+  0.2+    230515 J95  0.3-  0.1+    230516 J95  0.5+  0.4+
    230513 G96  0.6-  0.2+    230515 J95  0.3-  0.6-    230517 H21  0.2-  0.1-
    230513 G96  0.2-  0.1-    230516 I93  0.2+  0.5-    230517 H21  0.5-  0.1+
    230513 I52  0.1+  0.2-    230516 I93  0.0   0.3+    230517 H21  0.4-  0.1-
    230513 I52  0.0   0.0     230516 I93  0.3+  0.5+    230517 H21  0.3-  0.1-
    230513 I52  0.2+  0.4-    230516 511  0.5-  0.3+
    
    Ephemeris:
    2023 JD4                 a,e,i = 2.19, 0.57, 6                   q = 0.9488
    Date    TT    R. A. (2000) Decl.     Delta      r    Elong.  Phase     V
    2023 04 17    13 13 43.7 +13 39 21   0.2118  1.1994   155.4    20.4    23.0
    ...
    2023 05 02    12 52 11.0 +18 12 10   0.1170  1.0976   138.2    37.7    22.0
    ...
    2023 05 10    12 24 46.5 +22 24 56   0.07062 1.0507   124.1    52.7    21.2
    ...
    2023 05 16    11 20 55.6 +29 50 02   0.03821 1.0202   103.0    74.9    20.5
    2023 05 17    10 57 00.0 +31 54 23   0.03340 1.0155    96.6    81.5    20.4
    2023 05 18    10 23 55.2 +34 11 00   0.02900 1.0110    88.5    89.9    20.4
    ...
    2023 05 24    04 18 22.8 +18 09 57   0.02581 0.9868     4.8   175.1
    ...
    2023 06 01    02 23 56.5 -02 14 28   0.06697 0.9633    39.8   137.7    25.5
    ...
    2023 06 16    01 58 38.5 -06 57 27   0.1561  0.9498    60.9   110.8    25.0
    
    M. P. C. Staff               (C) Copyright 2023 MPC           M.P.E.C. 2023-K27
    


    Read MPEC 2023-K26 Read MPEC 2023-K28


    MPEC number:

    Enter an MPEC number in one of the following forms:

    • 1997-B01 (the full form)
    • J97B01 (the packed version of the full form)
    • B01 (the abbreviated form)